South St. Paul, MN

8:31 PM CDT on September 19, 2017 (GMT -0500)
South Saint Paul Municipal-Fleming

Weather History for KSGS - June, 2013

Change the Weather History Date:

Friday, June 14, 2013

  Actual Average (KSTP) Record (KSTP)
Temperature  
Mean Temperature 70 °F -  
Max Temperature 80 °F 74 °F 91 °F (2007)
Min Temperature 60 °F 55 °F 48 °F (1999)
Cooling Degree Days 5    
Growing Degree Days 20 (Base 50)    
Moisture  
Dew Point 56 °F    
Average Humidity 57    
Maximum Humidity 75    
Minimum Humidity 47    
Precipitation  
Precipitation 0.00 in - - ()
Sea Level Pressure  
Sea Level Pressure 30.01 in    
Wind  
Wind Speed 5 mph (SE)    
Max Wind Speed 14 mph    
Max Gust Speed 22 mph    
Visibility 10 miles    
Events      
Averages and records for this station are not official NWS values.
T = Trace of Precipitation, MM = Missing Value Source: NWS Daily Summary

Daily Weather History Graph

Daily Weather History Graph

Search for Another Location

Airport or City:

Trip Planner

Search our weather history database for the weather conditions in past years. The results will help you decide how hot, cold, wet, or windy it might be!

Date:

Astronomy

Jun. 14, 2013 Rise Set
Actual Time 5:25 AM CDT 8:59 PM CDT
Civil Twilight 4:48 AM CDT 9:36 PM CDT
Nautical Twilight 3:58 AM CDT 10:26 PM CDT
Astronomical Twilight 2:54 AM CDT 11:31 PM CDT
Moon 11:13 AM CDT (6/14) No Moon Set
Length of Visible Light 16h 48m
Length of Day
15h 34m
Waxing Crescent, 30% of the Moon is Illuminated
Jun 14
Waxing Crescent
Jun 16
First Quarter
Jun 23
Full
Jun 29
Last Quarter
Jul 8
New

Hourly Weather History & Observations

Time (CDT) Temp. Heat Index Dew Point Humidity Pressure Visibility Wind Dir Wind Speed Gust Speed Precip Events Conditions
12:14 AM 67.8 °F - 50.2 °F 53% 30.08 in 10.0 mi Calm Calm - N/A   Clear
12:34 AM 67.5 °F - 50.0 °F 53% 30.09 in 10.0 mi Calm Calm - N/A   Clear
12:54 AM 67.5 °F - 49.5 °F 52% 30.09 in 10.0 mi East 4.6 mph - N/A   Clear
1:14 AM 66.9 °F - 50.0 °F 54% 30.09 in 10.0 mi East 3.5 mph - N/A   Clear
1:34 AM 66.0 °F - 50.2 °F 57% 30.08 in 10.0 mi Calm Calm - N/A   Clear
1:54 AM 65.5 °F - 49.8 °F 57% 30.07 in 10.0 mi Calm Calm - N/A   Clear
2:14 AM 64.6 °F - 50.2 °F 60% 30.06 in 10.0 mi Calm Calm - N/A   Clear
2:34 AM 64.6 °F - 50.4 °F 60% 30.05 in 10.0 mi Calm Calm - N/A   Clear
2:54 AM 64.8 °F - 50.5 °F 60% 30.06 in 10.0 mi East 5.8 mph - N/A   Clear
3:14 AM 63.5 °F - 50.7 °F 63% 30.07 in 10.0 mi South 3.5 mph - N/A   Clear
3:34 AM 62.1 °F - 51.1 °F 67% 30.08 in 10.0 mi Calm Calm - N/A   Clear
3:54 AM 62.6 °F - 50.9 °F 66% 30.07 in 10.0 mi Calm Calm - N/A   Clear
4:14 AM 62.4 °F - 51.4 °F 67% 30.08 in 10.0 mi Calm Calm - N/A   Clear
4:34 AM 62.1 °F - 51.8 °F 69% 30.09 in 10.0 mi Calm Calm - N/A   Clear
4:54 AM 60.3 °F - 52.3 °F 75% 30.09 in 10.0 mi Calm Calm - N/A   Clear
5:14 AM 61.5 °F - 52.0 °F 71% 30.08 in 10.0 mi ESE 4.6 mph - N/A   Clear
5:34 AM 61.9 °F - 52.2 °F 70% 30.07 in 10.0 mi ESE 5.8 mph - N/A   Clear
5:54 AM 61.7 °F - 52.2 °F 71% 30.06 in 10.0 mi SE 4.6 mph - N/A   Clear
6:14 AM 61.7 °F - 52.5 °F 72% 30.06 in 10.0 mi SE 4.6 mph - N/A   Clear
6:34 AM 62.1 °F - 52.7 °F 71% 30.05 in 10.0 mi SSE 4.6 mph - N/A   Clear
6:54 AM 63.7 °F - 53.6 °F 70% 30.07 in 10.0 mi SE 4.6 mph - N/A   Clear
7:14 AM 65.3 °F - 53.8 °F 66% 30.07 in 10.0 mi SSE 6.9 mph - N/A   Clear
7:34 AM 66.4 °F - 54.5 °F 66% 30.08 in 10.0 mi SE 5.8 mph - N/A   Clear
7:54 AM 66.2 °F - 54.5 °F 66% 30.09 in 10.0 mi SSE 8.1 mph - N/A   Clear
8:14 AM 66.6 °F - 54.9 °F 66% 30.09 in 10.0 mi SSE 5.8 mph - N/A   Clear
8:34 AM 68.7 °F - 55.4 °F 62% 30.10 in 10.0 mi SSE 6.9 mph - N/A   Clear
8:54 AM 68.0 °F - 54.7 °F 62% 30.07 in 10.0 mi SE 10.4 mph - N/A   Clear
9:14 AM 68.0 °F - 55.6 °F 64% 30.07 in 10.0 mi SSE 8.1 mph - N/A   Clear
9:34 AM 68.9 °F - 56.3 °F 64% 30.08 in 10.0 mi SE 5.8 mph - N/A   Clear
9:54 AM 70.5 °F - 56.7 °F 61% 30.07 in 10.0 mi SE 6.9 mph - N/A   Clear
10:14 AM 71.8 °F - 56.8 °F 59% 30.07 in 10.0 mi SE 10.4 mph - N/A   Clear
10:34 AM 72.5 °F - 57.0 °F 58% 30.06 in 10.0 mi SE 8.1 mph - N/A   Clear
10:54 AM 73.0 °F - 57.2 °F 57% 30.06 in 10.0 mi SSE 9.2 mph - N/A   Clear
11:14 AM 73.6 °F - 57.4 °F 57% 30.06 in 10.0 mi SE 8.1 mph - N/A   Clear
11:34 AM 74.5 °F - 57.7 °F 56% 30.05 in 10.0 mi SE 6.9 mph - N/A   Clear
11:54 AM 75.9 °F - 58.1 °F 54% 30.03 in 10.0 mi SSE 9.2 mph 16.1 mph N/A   Clear
12:14 PM 77.0 °F - 57.9 °F 52% 30.03 in 10.0 mi SE 9.2 mph - N/A   Clear
12:34 PM 77.4 °F - 56.7 °F 49% 30.02 in 10.0 mi SSE 12.7 mph 18.4 mph N/A   Clear
12:54 PM 77.9 °F - 57.4 °F 49% 30.01 in 10.0 mi SE 10.4 mph 17.3 mph N/A   Clear
1:14 PM 77.9 °F - 56.8 °F 48% 30.01 in 10.0 mi SSE 12.7 mph - N/A   Scattered Clouds
1:34 PM 77.9 °F - 57.6 °F 49% 30.01 in 10.0 mi SSE 10.4 mph 17.3 mph N/A   Scattered Clouds
1:54 PM 77.2 °F - 56.7 °F 49% 30.01 in 10.0 mi South 11.5 mph 16.1 mph N/A   Scattered Clouds
2:14 PM 77.4 °F - 56.5 °F 48% 30.03 in 10.0 mi South 6.9 mph 17.3 mph N/A   Scattered Clouds
2:34 PM 77.0 °F - 57.0 °F 50% 30.01 in 10.0 mi SSE 10.4 mph 16.1 mph N/A   Scattered Clouds
2:54 PM 77.5 °F - 57.4 °F 50% 29.98 in 10.0 mi SSE 8.1 mph - N/A   Clear
3:14 PM 77.5 °F - 57.0 °F 49% 29.97 in 10.0 mi SSE 11.5 mph 16.1 mph N/A   Clear
3:34 PM 78.3 °F - 57.4 °F 49% 29.97 in 10.0 mi SSE 11.5 mph - N/A   Clear
3:54 PM 79.0 °F - 57.6 °F 48% 29.95 in 10.0 mi SSE 13.8 mph 20.7 mph N/A   Clear
4:14 PM 79.0 °F - 57.4 °F 47% 29.94 in 10.0 mi SSE 12.7 mph 21.9 mph N/A   Clear
4:34 PM 79.2 °F - 57.4 °F 47% 29.95 in 10.0 mi SSE 12.7 mph 18.4 mph N/A   Clear
4:54 PM 79.3 °F - 57.2 °F 47% 29.94 in 10.0 mi SSE 9.2 mph 19.6 mph N/A   Scattered Clouds
5:14 PM 79.5 °F - 57.9 °F 47% 29.93 in 10.0 mi SSE 10.4 mph 16.1 mph N/A   Scattered Clouds
5:34 PM 80.1 °F 80.6 °F 57.9 °F 47% 29.92 in 10.0 mi SSE 9.2 mph 18.4 mph N/A   Scattered Clouds
5:54 PM 79.7 °F - 57.7 °F 47% 29.93 in 10.0 mi SSE 11.5 mph 16.1 mph N/A   Clear
6:14 PM 79.0 °F - 57.9 °F 48% 29.92 in 10.0 mi SE 9.2 mph 17.3 mph N/A   Mostly Cloudy
6:34 PM 78.6 °F - 58.1 °F 49% 29.92 in 10.0 mi SE 9.2 mph 16.1 mph N/A   Scattered Clouds
6:54 PM 79.0 °F - 58.6 °F 50% 29.92 in 10.0 mi SE 9.2 mph - N/A   Mostly Cloudy
7:14 PM 78.3 °F - 58.3 °F 50% 29.91 in 10.0 mi SE 10.4 mph - N/A   Overcast
7:34 PM 77.9 °F - 58.3 °F 51% 29.92 in 10.0 mi SE 6.9 mph - N/A   Mostly Cloudy
7:54 PM 77.5 °F - 58.5 °F 52% 29.92 in 10.0 mi SSE 6.9 mph - N/A   Mostly Cloudy
8:14 PM 77.0 °F - 58.6 °F 53% 29.91 in 10.0 mi SE 4.6 mph - N/A   Scattered Clouds
8:34 PM 76.5 °F - 58.6 °F 54% 29.91 in 10.0 mi SE 4.6 mph - N/A   Overcast
8:54 PM 76.1 °F - 58.3 °F 54% 29.90 in 10.0 mi SSE 8.1 mph - N/A   Mostly Cloudy
9:14 PM 75.4 °F - 58.5 °F 56% 29.91 in 10.0 mi SSE 4.6 mph - N/A   Mostly Cloudy
9:34 PM 75.0 °F - 59.0 °F 57% 29.91 in 10.0 mi SE 6.9 mph - N/A   Mostly Cloudy
9:54 PM 74.7 °F - 59.0 °F 58% 29.90 in 10.0 mi SSE 5.8 mph - N/A   Scattered Clouds
10:14 PM 74.5 °F - 58.6 °F 58% 29.89 in 10.0 mi SE 6.9 mph - N/A   Clear
10:34 PM 73.8 °F - 59.0 °F 60% 29.89 in 10.0 mi SSE 3.5 mph - N/A   Clear
10:54 PM 72.9 °F - 59.0 °F 62% 29.88 in 10.0 mi SE 3.5 mph - N/A   Clear
11:14 PM 72.5 °F - 59.2 °F 63% 29.89 in 10.0 mi SSE 3.5 mph - N/A   Scattered Clouds
11:34 PM 72.5 °F - 59.0 °F 62% 29.89 in 10.0 mi SSE 5.8 mph - N/A   Mostly Cloudy
11:54 PM 72.7 °F - 59.0 °F 62% 29.90 in 10.0 mi South 3.5 mph - N/A   Overcast